[[{"header":{"parameterUnit":"m.s-1","parameterCategory":2,"la1":30.2991,"la2":30.254,"lo1":-89.0895,"lo2":-89.0444,"dy":0.0017,"dx":0.0017,"nx":28,"ny":28,"refTime":"2025-07-22T21:00:00:Z","depth":"0","parameterNumber":2,"parameterNumberName":"U-component_of_CURRENTS"},"data":[0,0,0,0,0,0,0,0,0,0,0,0,0,0,0,0,0,0,0,0,0,0,0,0,0,0,0,0,0,0,0,0,0,0,0,0,0,0,0,0,0,0,0,0,0,0,0,0,0,0,0,0,0,0,0,0,0,0,0.4333,0.4334,0,0.4398,0.4398,0.4399,0.4388,0.4387,0.4386,0.4385,0.4384,0.4385,0.4386,0,0,0,0,0,0,0,0,0,0,0,0,0,0.4252,0.4253,0.4333,0.4334,0.4335,0.4397,0.4398,0.4399,0.4389,0.4387,0.4386,0.4385,0.4384,0.4385,0.4386,0,0,0,0,0,0,0,0,0,0,0,0,0,0.4297,0.4253,0.4332,0.4338,0.4339,0.4397,0.4398,0.4399,0.4389,0.4387,0.4386,0.4384,0.4383,0.4384,0.4386,0.4423,0,0,0.439,0.439,0,0,0,0,0,0,0,0,0.4295,0.43,0.4336,0.4338,0.4339,0.4385,0.4369,0.4404,0.4389,0.4368,0.4385,0.4384,0.438,0.4382,0.4396,0.4423,0.4423,0.439,0.4391,0.4391,0.4392,0,0,0,0,0,0,0,0.4291,0.4298,0.4357,0.4337,0.4339,0.4355,0.4359,0.4376,0.4379,0.437,0.437,0.438,0.438,0.4395,0.4396,0.4423,0.439,0.4391,0.4392,0.4392,0.4555,0.4558,0,0,0,0,0,0,0.4286,0.4295,0.4355,0.4359,0.4315,0.4358,0.4362,0.437,0.4381,0.4382,0.4381,0.4379,0.4393,0.4394,0.4395,0.448,0.4391,0.4392,0.4393,0.4551,0.4555,0.4559,0,0,0,0,0,0,0.4284,0.429,0.4352,0.4329,0.4338,0.436,0.437,0.4372,0.4388,0.439,0.4389,0.4393,0.4392,0.4394,0.4426,0.4478,0.4393,0.4394,0.4547,0.4552,0.4557,0.4624,0,0,0,0,0,0,0.4281,0.4289,0.4296,0.4329,0.434,0.4403,0.4371,0.4375,0.4397,0.4395,0.44,0.4399,0.4391,0.4425,0.4428,0.4478,0.4395,0.4542,0.4549,0.4556,0.4617,0.4631,0.4643,0,0,0,0,0,0.4278,0.4289,0.4296,0.4303,0.4347,0.4406,0.4414,0.4422,0.4399,0.4425,0.4425,0.4398,0.447,0.4428,0.4431,0.4483,0.4539,0.4547,0.4555,0.4612,0.4628,0.4642,0,0,0,0,0,0,0.4251,0.4291,0.4298,0.4319,0.4368,0.4404,0.4422,0.4429,0.4452,0.4442,0.4429,0.443,0.45,0.4482,0.4436,0.4556,0.4507,0.4516,0.4549,0.4565,0.4577,0.4648,0.4396,0,0,0,0,0,0.4252,0.4272,0.4321,0.4341,0.4363,0.4395,0.4416,0.4433,0.4456,0.4464,0.4474,0.4491,0.454,0.4537,0.4586,0.462,0.4641,0.4664,0.4677,0.4687,0.4752,0.4822,0.4846,0.4585,0.4585,0.4585,0,0,0.4245,0.4271,0.428,0.4338,0.4366,0.4426,0.4404,0.4449,0.45,0.4461,0.4522,0.455,0.457,0.4637,0.4663,0.4614,0.4766,0.4697,0.4705,0.4766,0.4833,0.4858,0.488,0.4591,0.459,0.4589,0,0,0.4263,0.4268,0.4306,0.4352,0.4414,0.4444,0.446,0.4516,0.4541,0.4598,0.4612,0.4679,0.4697,0.4759,0.4778,0.4891,0.4856,0.4884,0.4969,0.5033,0.5055,0.5075,0.5093,0.5114,0.4856,0.4856,0.4857,0,0.4266,0.4311,0.4329,0.439,0.4426,0.4455,0.4516,0.4561,0.4625,0.466,0.4625,0.4762,0.4777,0.4896,0.4946,0.4925,0.4928,0.4894,0.5048,0.5069,0.5088,0.5102,0.5124,0.4861,0.486,0.486,0.4859,0,0.432,0.4368,0.4393,0.4477,0.4519,0.4576,0.4639,0.4691,0.4704,0.4754,0.4875,0.4921,0.4999,0.5017,0.5012,0.5169,0.5115,0.5075,0.5001,0.5118,0.5125,0.5147,0.4867,0.4865,0.4864,0.4863,0,0,0.431,0.4416,0.4426,0.4478,0.4567,0.4609,0.4695,0.4792,0.4859,0.4928,0.5029,0.5147,0.518,0.5216,0.5234,0.5299,0.5424,0.5244,0.5245,0.5249,0.5531,0.529,0.529,0.5383,0.5389,0.5393,0.5464,0,0.436,0.4482,0.4509,0.4615,0.4685,0.4724,0.4799,0.4885,0.4951,0.506,0.5143,0.526,0.5246,0.5298,0.5371,0.5441,0.5493,0.5408,0.5434,0.5436,0.5197,0.5313,0.5031,0.5054,0.5485,0.5489,0.5491,0,0.4399,0.4489,0.4593,0.4699,0.4726,0.4777,0.4888,0.4968,0.5117,0.5171,0.5298,0.5371,0.5543,0.5489,0.5657,0.5589,0.5594,0.5616,0.5617,0.5403,0.5239,0.502,0.5078,0.498,0.5525,0.5522,0.552,0,0.4384,0.4528,0.4605,0.4645,0.4777,0.4808,0.487,0.5,0.5081,0.5271,0.5351,0.5528,0.5608,0.5702,0.5747,0.5714,0.5882,0.5818,0.5607,0.5587,0.5368,0.5318,0.5332,0.5943,0.5943,0.5942,0.5942,0,0.4409,0.448,0.4603,0.4648,0.4762,0.4815,0.4922,0.5022,0.5155,0.5256,0.5416,0.5522,0.5667,0.5759,0.5802,0.5761,0.5911,0.5678,0.5615,0.5373,0.5326,0.5244,0.5215,0.5945,0.5944,0.5944,0.5944,0,0.4387,0.4458,0.4572,0.4706,0.4758,0.483,0.4955,0.5022,0.5155,0.5296,0.5366,0.5541,0.5624,0.5722,0.5844,0.5772,0.563,0.574,0.542,0.5317,0.4968,0.4951,0.4787,0.4659,0.5531,0.5526,0.5521,0,0.4386,0.444,0.4612,0.4669,0.4728,0.484,0.4903,0.5032,0.5087,0.5284,0.5332,0.5467,0.5487,0.5556,0.5489,0.5477,0.5417,0.5201,0.5101,0.495,0.4891,0.4769,0.4668,0.4835,0.4825,0.4817,0.4811,0,0.4402,0.4446,0.4535,0.4667,0.4736,0.4818,0.4898,0.493,0.504,0.5116,0.5168,0.5205,0.5232,0.5054,0.5009,0.4986,0.493,0.5029,0.4993,0.4463,0.4222,0.4062,0.4772,0.4741,0.4748,0.4753,0.4757,0.476,0.4394,0.4447,0.4529,0.462,0.4707,0.4692,0.4643,0.4678,0.4676,0.4636,0.485,0.4747,0.4732,0.4584,0.454,0.4284,0.4369,0.4155,0.4186,0.4106,0.3867,0.4388,0.4194,0.4198,0.4201,0.4204,0.4206,0,0.434,0.4378,0.4469,0.4513,0.4489,0.4573,0.4549,0.4392,0.4234,0.4276,0.4235,0.411,0.3919,0.3914,0.3709,0.3523,0.3417,0.3446,0.3286,0.326,0.3829,0.3681,0.322,0.322,0.322,0.322,0.3221,0.3221,0.4314,0.4318,0.4329,0.4241,0.4243,0.4062,0.3956,0.3776,0.3706,0.3455,0.3328,0.3363,0.3498,0.3404,0.3171,0.3078,0.2928,0.2694,0.282,0.3297,0.3368,0.3436,0.3294,0.2759,0.2759,0.2086,0.2081,0.2077]},{"header":{"parameterUnit":"m.s-1","parameterCategory":2,"la1":30.2991,"la2":30.254,"lo1":-89.0895,"lo2":-89.0444,"dy":0.0017,"dx":0.0017,"nx":28,"ny":28,"refTime":"2025-07-22T21:00:00:Z","depth":"0","parameterNumber":3,"parameterNumberName":"V-component_of_CURRENTS"},"data":[0,0,0,0,0,0,0,0,0,0,0,0,0,0,0,0,0,0,0,0,0,0,0,0,0,0,0,0,0,0,0,0,0,0,0,0,0,0,0,0,0,0,0,0,0,0,0,0,0,0,0,0,0,0,0,0,0,0,0.0277,0.0276,0,0.0245,0.0245,0.0244,0.0209,0.0209,0.0209,0.0208,0.0167,0.0166,0.0165,0,0,0,0,0,0,0,0,0,0,0,0,0,0.0272,0.0273,0.0277,0.0276,0.0276,0.0245,0.0245,0.0244,0.021,0.0209,0.0208,0.0208,0.0167,0.0166,0.0165,0,0,0,0,0,0,0,0,0,0,0,0,0,0.0261,0.0273,0.0277,0.0255,0.0253,0.0245,0.0245,0.0244,0.021,0.0209,0.0208,0.0208,0.0167,0.0166,0.0165,0.0174,0,0,0.0162,0.0162,0,0,0,0,0,0,0,0,0.0262,0.0261,0.0259,0.0257,0.0254,0.0231,0.0228,0.022,0.021,0.0226,0.0208,0.0207,0.0188,0.0185,0.0181,0.0172,0.017,0.0162,0.0162,0.0161,0.0161,0,0,0,0,0,0,0,0.0262,0.0262,0.0264,0.0258,0.0256,0.0235,0.0233,0.0226,0.0211,0.0224,0.0222,0.0219,0.0187,0.0182,0.0179,0.0169,0.0162,0.0161,0.0161,0.016,0.0203,0.0205,0,0,0,0,0,0,0.027,0.0263,0.0265,0.0263,0.0257,0.0236,0.0234,0.0239,0.0211,0.0206,0.022,0.0218,0.0184,0.0181,0.0178,0.0231,0.0161,0.016,0.016,0.0202,0.0204,0.0206,0,0,0,0,0,0,0.027,0.0271,0.0266,0.0262,0.026,0.0237,0.0243,0.0239,0.0232,0.0208,0.0203,0.0218,0.0183,0.0179,0.0187,0.0227,0.016,0.0159,0.02,0.0202,0.0205,0.0308,0,0,0,0,0,0,0.027,0.0271,0.0277,0.0263,0.026,0.0273,0.0244,0.0238,0.0232,0.0229,0.0205,0.02,0.0182,0.0189,0.0186,0.0224,0.0158,0.0197,0.0201,0.0204,0.0302,0.0313,0.0323,0,0,0,0,0,0.027,0.0289,0.0277,0.0277,0.0269,0.0274,0.0271,0.0252,0.0233,0.0241,0.0229,0.0201,0.0208,0.019,0.0186,0.0225,0.0196,0.02,0.0204,0.0297,0.0311,0.0323,0,0,0,0,0,0,0.0289,0.0286,0.0274,0.0289,0.0284,0.0268,0.0273,0.0256,0.0251,0.0251,0.0219,0.0215,0.0239,0.0216,0.0197,0.0247,0.0199,0.0202,0.0271,0.0284,0.0295,0.0351,0.0157,0,0,0,0,0,0.0296,0.0308,0.0299,0.031,0.0311,0.0291,0.0288,0.028,0.0273,0.0269,0.0253,0.0245,0.0254,0.0255,0.0253,0.0276,0.0265,0.03,0.0311,0.032,0.0364,0.0381,0.0398,0.0218,0.0218,0.0218,0,0,0.0304,0.0304,0.031,0.0314,0.0307,0.0335,0.0288,0.0297,0.0328,0.0267,0.03,0.028,0.0267,0.03,0.0309,0.0285,0.0358,0.0325,0.0333,0.0373,0.0387,0.0404,0.042,0.0221,0.0221,0.022,0,0,0.0342,0.033,0.036,0.0365,0.0368,0.0365,0.037,0.0364,0.0367,0.039,0.0365,0.0381,0.0368,0.0389,0.0393,0.0462,0.0412,0.0443,0.0545,0.056,0.0575,0.0589,0.0567,0.0578,0.0449,0.0449,0.0449,0,0.0351,0.0391,0.0368,0.0403,0.0422,0.0385,0.0433,0.0436,0.0436,0.0461,0.0417,0.0456,0.0428,0.0506,0.0524,0.0492,0.0471,0.0495,0.0575,0.0589,0.0601,0.0575,0.0586,0.0454,0.0454,0.0453,0.0453,0,0.042,0.0449,0.0468,0.0507,0.0524,0.0555,0.0563,0.0582,0.0573,0.0582,0.064,0.0616,0.0648,0.063,0.0595,0.0678,0.0623,0.0584,0.0546,0.0625,0.0592,0.0602,0.0462,0.046,0.0459,0.0457,0,0,0.045,0.0508,0.0514,0.0558,0.0586,0.0615,0.0671,0.0725,0.0788,0.0776,0.0868,0.0865,0.0852,0.0858,0.0821,0.083,0.0866,0.0746,0.0744,0.073,0.0871,0.0765,0.0764,0.0829,0.0832,0.0834,0.0801,0,0.0513,0.0609,0.0619,0.0715,0.077,0.0769,0.0836,0.0879,0.0902,0.0977,0.0974,0.1038,0.0939,0.0966,0.0962,0.0904,0.0901,0.0878,0.0793,0.0791,0.0693,0.0776,0.0743,0.0707,0.081,0.0812,0.0813,0,0.0583,0.0645,0.0751,0.0849,0.0873,0.092,0.103,0.109,0.1173,0.1197,0.1252,0.1243,0.1288,0.1182,0.1138,0.112,0.1017,0.095,0.0946,0.0832,0.0705,0.065,0.0719,0.0585,0.0826,0.0825,0.0824,0,0.0638,0.0738,0.0832,0.0861,0.0962,0.1012,0.1069,0.1157,0.1254,0.1354,0.1434,0.1451,0.1484,0.1391,0.1234,0.1192,0.1161,0.108,0.0892,0.088,0.0835,0.0815,0.078,0.106,0.1061,0.1061,0.1061,0,0.0711,0.0784,0.0863,0.0916,0.1052,0.1089,0.1241,0.1297,0.143,0.1581,0.1561,0.1673,0.1537,0.1492,0.1323,0.1142,0.1224,0.0947,0.0888,0.0862,0.0847,0.071,0.0609,0.1059,0.106,0.106,0.106,0,0.0767,0.0807,0.093,0.1041,0.1082,0.1185,0.1351,0.148,0.1567,0.177,0.1821,0.1857,0.1781,0.1613,0.1455,0.1255,0.0987,0.0999,0.0956,0.0894,0.0562,0.0467,0.0353,0.0293,0.0798,0.0796,0.0793,0,0.0809,0.0877,0.1022,0.1112,0.1163,0.131,0.1434,0.1549,0.1697,0.1887,0.2007,0.1993,0.2004,0.1717,0.1372,0.1068,0.092,0.0818,0.0738,0.0576,0.0429,0.0364,0.032,0.0703,0.0701,0.0698,0.0697,0,0.0911,0.0952,0.1057,0.123,0.1361,0.153,0.1699,0.183,0.1995,0.2137,0.2294,0.2312,0.2027,0.1698,0.1253,0.1034,0.0698,0.0759,0.0636,0.0403,0.0294,0.0197,0.0662,0.0677,0.0679,0.0681,0.0682,0.0683,0.0989,0.1078,0.1206,0.137,0.1531,0.1727,0.1863,0.2039,0.225,0.2446,0.2462,0.2473,0.201,0.1392,0.1089,0.0509,0.052,0.0329,0.024,0.0202,0.0116,0.0513,0.0427,0.0428,0.0428,0.0428,0.0429,0,0.1087,0.1182,0.1343,0.1535,0.1714,0.1778,0.2034,0.2158,0.2369,0.2516,0.2603,0.2354,0.1793,0.125,0.0456,0.0077,-0.0019,-0.0105,-0.0164,-0.0174,0.0228,0.0196,0.0005,0.0005,0.0005,0.0005,0.0006,0.0006,0.1145,0.1292,0.1361,0.1644,0.1785,0.2001,0.2137,0.2302,0.2429,0.2542,0.2517,0.2485,0.2061,0.0727,-0.0107,-0.0287,-0.0489,-0.0602,-0.0663,-0.0369,-0.0333,-0.0298,-0.0347,-0.0649,-0.065,-0.0998,-0.1002,-0.1005]}],[{"header":{"parameterUnit":"m.s-1","parameterCategory":2,"la1":30.2991,"la2":30.254,"lo1":-89.0895,"lo2":-89.0444,"dy":0.0017,"dx":0.0017,"nx":28,"ny":28,"refTime":"2025-07-22T21:00:00:Z","depth":"2","parameterNumber":2,"parameterNumberName":"U-component_of_CURRENTS"},"data":[0,0,0,0,0,0,0,0,0,0,0,0,0,0,0,0,0,0,0,0,0,0,0,0,0,0,0,0,0,0,0,0,0,0,0,0,0,0,0,0,0,0,0,0,0,0,0,0,0,0,0,0,0,0,0,0,0,0,0.322,0.3221,0,0.3248,0.3248,0.3248,0.3233,0.3233,0.3233,0.3233,0.3325,0.3328,0.333,0,0,0,0,0,0,0,0,0,0,0,0,0,0.3145,0.3146,0.322,0.3221,0.3222,0.3248,0.3248,0.3247,0.3233,0.3233,0.3233,0.3233,0.3325,0.3327,0.333,0,0,0,0,0,0,0,0,0,0,0,0,0,0.3168,0.3146,0.322,0.3224,0.3225,0.3248,0.3248,0.3247,0.3233,0.3233,0.3233,0.3233,0.3324,0.3327,0.3331,0.3354,0,0,0.3342,0.3344,0,0,0,0,0,0,0,0,0.3167,0.317,0.3222,0.3224,0.3225,0.3244,0.3256,0.3289,0.3233,0.3221,0.3233,0.3233,0.331,0.3314,0.3307,0.3358,0.3362,0.3342,0.3345,0.3346,0.3347,0,0,0,0,0,0,0,0.3165,0.3168,0.3223,0.3224,0.3226,0.3223,0.3225,0.3261,0.326,0.3222,0.3223,0.324,0.331,0.3303,0.331,0.3363,0.3342,0.3346,0.3348,0.3349,0.3495,0.3496,0,0,0,0,0,0,0.3179,0.3167,0.3222,0.3224,0.3205,0.3224,0.3227,0.3231,0.3258,0.3264,0.324,0.3239,0.3297,0.3305,0.3313,0.3428,0.3346,0.335,0.3352,0.3493,0.3495,0.3497,0,0,0,0,0,0,0.3177,0.3183,0.3221,0.3203,0.3209,0.3227,0.3231,0.3232,0.3243,0.3272,0.3277,0.3253,0.3297,0.3308,0.3383,0.3428,0.3351,0.3355,0.3491,0.3494,0.3496,0.3603,0,0,0,0,0,0,0.3174,0.3181,0.3194,0.3204,0.3211,0.3252,0.3232,0.3233,0.3256,0.3256,0.3286,0.3293,0.3298,0.3378,0.3387,0.3432,0.3358,0.3489,0.3492,0.3495,0.3597,0.3609,0.3619,0,0,0,0,0,0.3171,0.318,0.3194,0.3202,0.3225,0.3254,0.3257,0.3263,0.3257,0.327,0.3306,0.3293,0.3403,0.3384,0.3393,0.344,0.3488,0.3492,0.3495,0.3593,0.3607,0.3618,0,0,0,0,0,0,0.3148,0.3181,0.3196,0.3214,0.3246,0.3255,0.3267,0.3276,0.3308,0.3321,0.333,0.3341,0.343,0.3414,0.3392,0.3487,0.3437,0.3443,0.3507,0.352,0.3531,0.3563,0.3361,0,0,0,0,0,0.3155,0.3174,0.3208,0.3227,0.3242,0.3259,0.3274,0.3292,0.3322,0.3334,0.3353,0.3386,0.3448,0.3468,0.3512,0.3564,0.3568,0.3592,0.3603,0.3612,0.3644,0.3714,0.3735,0.3509,0.3509,0.3509,0,0,0.3154,0.3176,0.3188,0.3226,0.3243,0.3285,0.3265,0.3305,0.3353,0.3345,0.3405,0.3442,0.3476,0.355,0.3582,0.3542,0.3669,0.3617,0.3625,0.3652,0.3721,0.3743,0.3763,0.3512,0.3511,0.3511,0,0,0.3173,0.318,0.3212,0.3238,0.3292,0.3313,0.3332,0.3363,0.3386,0.346,0.3479,0.3558,0.3597,0.3653,0.3683,0.3777,0.3741,0.3758,0.3825,0.3893,0.3913,0.3931,0.3924,0.3941,0.3741,0.3741,0.3742,0,0.3189,0.3217,0.3227,0.3268,0.3294,0.333,0.3376,0.3415,0.3472,0.3503,0.3496,0.3613,0.3663,0.377,0.3817,0.3811,0.3802,0.3777,0.391,0.3928,0.3945,0.3934,0.3951,0.3747,0.3746,0.3746,0.3745,0,0.3226,0.3261,0.3276,0.3343,0.3373,0.3416,0.3475,0.3515,0.3549,0.3593,0.37,0.3765,0.3823,0.3855,0.3883,0.401,0.395,0.3935,0.3883,0.3975,0.3955,0.3971,0.3755,0.3753,0.3751,0.375,0,0,0.3243,0.33,0.3309,0.3336,0.3414,0.3436,0.3524,0.3605,0.3678,0.373,0.3815,0.3945,0.3959,0.3998,0.4023,0.4103,0.4231,0.4072,0.4073,0.4075,0.4321,0.4141,0.4139,0.4229,0.4233,0.4237,0.4246,0,0.3283,0.3345,0.3376,0.3445,0.3471,0.3521,0.3604,0.3685,0.376,0.3853,0.3927,0.4045,0.4013,0.4078,0.4141,0.4256,0.4283,0.4226,0.4226,0.4225,0.4064,0.4157,0.3852,0.3824,0.4261,0.4264,0.4266,0,0.3308,0.3344,0.3415,0.3478,0.35,0.3571,0.3678,0.3765,0.391,0.3966,0.4047,0.4114,0.4264,0.4227,0.437,0.4325,0.4326,0.4373,0.4373,0.4189,0.4077,0.3812,0.3836,0.4291,0.4289,0.4287,0.4286,0,0.3275,0.3356,0.341,0.3432,0.3538,0.3594,0.3666,0.3806,0.3885,0.4067,0.4145,0.4264,0.436,0.4414,0.4475,0.4447,0.4604,0.4564,0.4364,0.4348,0.4084,0.4037,0.4628,0.4628,0.4628,0.4628,0.4628,0,0.3281,0.3313,0.3406,0.3438,0.3495,0.3597,0.3724,0.3793,0.397,0.4072,0.4206,0.4278,0.4426,0.4503,0.4518,0.4481,0.4607,0.4405,0.4364,0.4102,0.4059,0.4466,0.4447,0.4628,0.4628,0.4628,0.4628,0,0.3227,0.3302,0.3341,0.3455,0.3483,0.353,0.3691,0.3816,0.3979,0.4116,0.4185,0.434,0.4433,0.4504,0.4621,0.4523,0.4541,0.4464,0.4111,0.4029,0.4215,0.4202,0.4271,0.4265,0.4261,0.4256,0.4253,0,0.3203,0.3235,0.3306,0.3368,0.343,0.3532,0.3637,0.3777,0.3898,0.4108,0.4163,0.431,0.432,0.4389,0.4329,0.4283,0.439,0.3934,0.3842,0.4238,0.4192,0.4186,0.418,0.3516,0.3506,0.3499,0.3493,0,0.3166,0.3205,0.3251,0.3315,0.3414,0.3468,0.3608,0.3654,0.3852,0.3935,0.3997,0.4035,0.4106,0.3918,0.3887,0.3818,0.3936,0.3773,0.4331,0.3644,0.3525,0.3479,0.3498,0.3426,0.3433,0.3438,0.3441,0.3444,0.3138,0.3118,0.3192,0.3238,0.3334,0.335,0.332,0.3474,0.3488,0.3544,0.3699,0.3637,0.3684,0.345,0.3325,0.3237,0.3491,0.3339,0.3364,0.3396,0.3298,0.3177,0.2991,0.2995,0.2998,0.3001,0.3004,0,0.3067,0.3066,0.3127,0.3115,0.3133,0.3216,0.3264,0.3201,0.3107,0.3237,0.3227,0.2945,0.2817,0.2865,0.2623,0.259,0.2594,0.2482,0.2478,0.2546,0.2606,0.247,0.1941,0.1938,0.1934,0.1931,0,0,0.3034,0.3012,0.2988,0.2893,0.2912,0.2795,0.2747,0.2668,0.2681,0.2572,0.253,0.2724,0.2801,0.2351,0.2279,0.2069,0.2298,0.1988,0.2848,0.2915,0.2971,0.3112,0.2979,0,0,0,0,0]},{"header":{"parameterUnit":"m.s-1","parameterCategory":2,"la1":30.2991,"la2":30.254,"lo1":-89.0895,"lo2":-89.0444,"dy":0.0017,"dx":0.0017,"nx":28,"ny":28,"refTime":"2025-07-22T21:00:00:Z","depth":"2","parameterNumber":3,"parameterNumberName":"V-component_of_CURRENTS"},"data":[0,0,0,0,0,0,0,0,0,0,0,0,0,0,0,0,0,0,0,0,0,0,0,0,0,0,0,0,0,0,0,0,0,0,0,0,0,0,0,0,0,0,0,0,0,0,0,0,0,0,0,0,0,0,0,0,0,0,0.0192,0.0192,0,0.0168,0.0168,0.0168,0.0143,0.0143,0.0142,0.0142,0.0104,0.0103,0.0102,0,0,0,0,0,0,0,0,0,0,0,0,0,0.018,0.018,0.0192,0.0192,0.0191,0.0168,0.0168,0.0168,0.0143,0.0143,0.0142,0.0142,0.0104,0.0103,0.0102,0,0,0,0,0,0,0,0,0,0,0,0,0,0.0173,0.018,0.0192,0.0176,0.0175,0.0168,0.0168,0.0168,0.0143,0.0143,0.0142,0.0142,0.0104,0.0103,0.0102,0.0106,0,0,0.0099,0.0098,0,0,0,0,0,0,0,0,0.0174,0.0174,0.0179,0.0177,0.0176,0.0158,0.015,0.0146,0.0143,0.0155,0.0142,0.0141,0.0121,0.0118,0.0115,0.0104,0.0103,0.0099,0.0098,0.0098,0.0097,0,0,0,0,0,0,0,0.0174,0.0175,0.0183,0.0179,0.0177,0.0158,0.0157,0.0149,0.0141,0.0154,0.0152,0.015,0.012,0.0116,0.0114,0.0102,0.0099,0.0098,0.0097,0.0097,0.0102,0.0102,0,0,0,0,0,0,0.018,0.0175,0.0183,0.0182,0.0173,0.0159,0.0158,0.0164,0.0141,0.0137,0.015,0.0149,0.0119,0.0116,0.0113,0.0144,0.0098,0.0097,0.0096,0.0101,0.0102,0.0103,0,0,0,0,0,0,0.018,0.0181,0.0184,0.0177,0.0176,0.016,0.0167,0.0164,0.0163,0.0139,0.0134,0.0152,0.0118,0.0114,0.0115,0.0141,0.0096,0.0095,0.01,0.0101,0.0102,0.0188,0,0,0,0,0,0,0.018,0.0182,0.0188,0.0178,0.0177,0.0191,0.0168,0.0164,0.0162,0.016,0.0139,0.0135,0.0117,0.0117,0.0114,0.0139,0.0095,0.0099,0.0101,0.0102,0.0185,0.0192,0.0199,0,0,0,0,0,0.018,0.0196,0.0189,0.019,0.0187,0.0192,0.019,0.0175,0.0163,0.0171,0.0156,0.0136,0.0124,0.0117,0.0113,0.0138,0.0098,0.01,0.0102,0.0181,0.0191,0.0199,0,0,0,0,0,0,0.0193,0.0195,0.0187,0.0202,0.02,0.0188,0.0193,0.0181,0.0176,0.0175,0.0147,0.0143,0.0152,0.0131,0.0124,0.0142,0.0107,0.0108,0.0169,0.0177,0.0184,0.0217,0.0094,0,0,0,0,0,0.02,0.0213,0.0208,0.0219,0.0221,0.0207,0.0206,0.02,0.0193,0.0189,0.0175,0.0161,0.0156,0.0155,0.0144,0.0157,0.013,0.0169,0.0176,0.0183,0.0206,0.0191,0.02,0.0108,0.0108,0.0108,0,0,0.0206,0.0209,0.0215,0.0223,0.0219,0.0242,0.0206,0.0214,0.0237,0.0187,0.021,0.0185,0.0163,0.0179,0.0181,0.0166,0.0188,0.0185,0.0191,0.021,0.0194,0.0203,0.0211,0.0109,0.0109,0.0109,0,0,0.0237,0.0232,0.0258,0.0264,0.0268,0.0266,0.0272,0.0267,0.0268,0.0282,0.0254,0.0252,0.0237,0.0238,0.0233,0.0274,0.0224,0.0259,0.0328,0.0313,0.0321,0.0328,0.028,0.0282,0.0266,0.0266,0.0266,0,0.0245,0.0282,0.0265,0.0296,0.0314,0.0283,0.0325,0.0323,0.032,0.0333,0.0301,0.0296,0.0274,0.0304,0.0318,0.0294,0.026,0.0299,0.0324,0.033,0.0336,0.0286,0.0287,0.027,0.027,0.027,0.0269,0,0.0304,0.0332,0.0349,0.0383,0.0397,0.0425,0.0426,0.0437,0.0427,0.0427,0.0443,0.0407,0.0405,0.0394,0.0371,0.0402,0.0355,0.0332,0.0307,0.0351,0.0294,0.0294,0.0277,0.0275,0.0274,0.0273,0,0,0.0332,0.0383,0.0389,0.0428,0.0451,0.0474,0.051,0.0545,0.0587,0.0556,0.0603,0.0579,0.0546,0.0539,0.0499,0.0492,0.0488,0.0435,0.0432,0.0396,0.0428,0.037,0.0362,0.0465,0.0466,0.0467,0.0364,0,0.0388,0.0471,0.0479,0.056,0.0608,0.0601,0.065,0.0672,0.0677,0.071,0.0665,0.0692,0.0604,0.0612,0.0582,0.0531,0.0494,0.0516,0.0385,0.0381,0.0331,0.0364,0.0387,0.0296,0.0363,0.0363,0.0363,0,0.0449,0.0503,0.0596,0.0675,0.0696,0.0736,0.0812,0.0856,0.0883,0.0887,0.0875,0.0835,0.0821,0.0739,0.0639,0.0654,0.0546,0.0485,0.0479,0.0403,0.0324,0.0267,0.0292,0.0361,0.0362,0.0362,0.0362,0,0.0498,0.0583,0.0667,0.0693,0.0775,0.0816,0.0862,0.0911,0.0981,0.1007,0.1049,0.0986,0.0981,0.0853,0.0691,0.0674,0.0568,0.0525,0.0357,0.035,0.0336,0.0326,0.0441,0.0442,0.0442,0.0442,0.0442,0,0.0565,0.0628,0.0697,0.0746,0.0865,0.089,0.1012,0.1046,0.112,0.1222,0.1146,0.1182,0.1014,0.0918,0.0743,0.0547,0.0591,0.0382,0.0334,0.0361,0.0355,0.0391,0.0386,0.0438,0.0439,0.044,0.0441,0,0.0612,0.0653,0.0757,0.0853,0.0894,0.0983,0.1118,0.1218,0.1262,0.1387,0.1407,0.135,0.1219,0.1013,0.0815,0.0631,0.0449,0.0353,0.0377,0.0335,0.0219,0.022,0.0176,0.0174,0.0171,0.017,0.0168,0,0.0647,0.0707,0.0837,0.0925,0.0975,0.1102,0.1214,0.129,0.1399,0.1483,0.1556,0.1462,0.1391,0.1054,0.0748,0.0432,0.0393,0.0231,0.0208,0.0242,0.0199,0.0203,0.0207,0.0205,0.0204,0.0203,0.0202,0,0.0729,0.0767,0.0858,0.1029,0.1154,0.1302,0.1445,0.1542,0.1647,0.1708,0.1751,0.1695,0.1394,0.1076,0.0655,0.0441,0.0289,0.02,0.0255,0.0269,0.0261,0.0222,0.0226,0.0194,0.0195,0.0196,0.0196,0.0197,0.0788,0.0862,0.0983,0.1144,0.1301,0.1474,0.1573,0.1708,0.1834,0.1925,0.1873,0.1781,0.1462,0.0909,0.0555,0.0197,0.0219,0.0083,0.0089,0.0096,0.0118,0.0107,0.0013,0.0013,0.0013,0.0013,0.0013,0,0.0868,0.0952,0.11,0.1281,0.1447,0.1518,0.172,0.1791,0.19,0.1987,0.1977,0.1634,0.129,0.0923,0.0395,0.0073,0.007,-0.004,0.0035,0.0045,0.0054,0.0077,-0.0041,-0.0042,-0.0043,-0.0044,0,0,0.0915,0.1049,0.1112,0.1365,0.1498,0.1681,0.1779,0.1872,0.1944,0.1961,0.1917,0.1844,0.1401,0.1001,0.0571,0.0268,0.0229,0.0202,0.0279,0.043,0.0442,0.0157,0.0207,0,0,0,0,0]}],[{"header":{"parameterUnit":"m.s-1","parameterCategory":2,"la1":30.2991,"la2":30.254,"lo1":-89.0895,"lo2":-89.0444,"dy":0.0017,"dx":0.0017,"nx":28,"ny":28,"refTime":"2025-07-22T21:00:00:Z","depth":"4","parameterNumber":2,"parameterNumberName":"U-component_of_CURRENTS"},"data":[0,0,0,0,0,0,0,0,0,0,0,0,0,0,0,0,0,0,0,0,0,0,0,0,0,0,0,0,0,0,0,0,0,0,0,0,0,0,0,0,0,0,0,0,0,0,0,0,0,0,0,0,0,0,0,0,0,0,0.175,0.175,0,0.1772,0.1773,0.1773,0.1832,0.1833,0.1834,0.1835,0.1909,0.191,0.1911,0,0,0,0,0,0,0,0,0,0,0,0,0,0.1735,0.1735,0.175,0.175,0.175,0.1772,0.1773,0.1773,0.1832,0.1833,0.1835,0.1836,0.1909,0.191,0.1911,0,0,0,0,0,0,0,0,0,0,0,0,0,0.1749,0.1735,0.175,0.1781,0.1784,0.1772,0.1773,0.1773,0.1832,0.1833,0.1835,0.1837,0.1909,0.191,0.1912,0.1887,0,0,0.1916,0.1917,0,0,0,0,0,0,0,0,0.1749,0.175,0.1776,0.1779,0.1782,0.18,0.1794,0.1813,0.1831,0.1815,0.1835,0.1837,0.1875,0.1879,0.1882,0.1891,0.1894,0.1916,0.1917,0.1917,0.1918,0,0,0,0,0,0,0,0.1748,0.1749,0.1761,0.1776,0.178,0.1785,0.179,0.1798,0.1838,0.1817,0.1821,0.182,0.1878,0.188,0.1884,0.1895,0.1916,0.1917,0.1918,0.1919,0.2052,0.2054,0,0,0,0,0,0,0.174,0.1748,0.176,0.1761,0.1767,0.1784,0.1789,0.1794,0.1837,0.1844,0.1818,0.1822,0.1877,0.1882,0.1887,0.199,0.1917,0.1919,0.192,0.2049,0.2053,0.2055,0,0,0,0,0,0,0.174,0.1741,0.1759,0.1754,0.1756,0.1783,0.1787,0.1793,0.1836,0.1837,0.1846,0.1859,0.1878,0.1885,0.1947,0.1989,0.1919,0.1921,0.2046,0.205,0.2054,0.2114,0,0,0,0,0,0,0.174,0.1741,0.176,0.1753,0.1756,0.1778,0.1786,0.1792,0.1829,0.1836,0.1874,0.188,0.188,0.1945,0.1948,0.1989,0.1922,0.2043,0.2048,0.2053,0.2108,0.2119,0.2129,0,0,0,0,0,0.1739,0.1745,0.1761,0.1764,0.1776,0.1779,0.1782,0.1807,0.183,0.1851,0.1895,0.1881,0.198,0.1948,0.1951,0.1994,0.204,0.2046,0.2052,0.2104,0.2117,0.2129,0,0,0,0,0,0,0.1754,0.1751,0.1769,0.1778,0.1793,0.1789,0.1812,0.1826,0.1874,0.1901,0.1907,0.1916,0.1986,0.1986,0.1951,0.2052,0.2011,0.2018,0.2049,0.2061,0.2071,0.2076,0.1923,0,0,0,0,0,0.1763,0.1771,0.1773,0.1789,0.18,0.1816,0.1828,0.1848,0.1875,0.1899,0.1926,0.1967,0.2004,0.2032,0.2058,0.2106,0.2113,0.2141,0.2151,0.216,0.2169,0.2224,0.224,0.2075,0.2075,0.2075,0,0,0.1777,0.1775,0.1785,0.1794,0.1812,0.1831,0.183,0.1862,0.1899,0.1898,0.1975,0.2,0.2026,0.2088,0.2119,0.2099,0.2212,0.2167,0.2174,0.2179,0.2232,0.2248,0.2262,0.2079,0.2079,0.2078,0,0,0.1787,0.1809,0.1818,0.183,0.1856,0.1868,0.1886,0.191,0.1952,0.2017,0.2032,0.2092,0.2144,0.2172,0.2192,0.2276,0.2261,0.2286,0.2342,0.2396,0.2409,0.2421,0.2448,0.2462,0.2294,0.2295,0.2295,0,0.1809,0.1812,0.1825,0.1834,0.1855,0.1889,0.1915,0.1953,0.2002,0.2044,0.2062,0.2165,0.2189,0.2256,0.2296,0.2298,0.2315,0.2287,0.2407,0.2419,0.243,0.2455,0.247,0.2298,0.2298,0.2297,0.2297,0,0.181,0.1832,0.1841,0.1869,0.1901,0.1926,0.1975,0.2026,0.2089,0.213,0.2229,0.2269,0.2336,0.235,0.2354,0.2442,0.2423,0.2408,0.2369,0.245,0.2471,0.2485,0.2303,0.2302,0.2301,0.23,0,0,0.1806,0.1835,0.1846,0.1863,0.1923,0.1939,0.2024,0.2094,0.2165,0.2236,0.2325,0.2402,0.2439,0.2465,0.2474,0.2517,0.2614,0.2505,0.2506,0.2518,0.2722,0.2537,0.2533,0.2619,0.2622,0.2624,0.2703,0,0.1809,0.1821,0.1853,0.1901,0.1913,0.1982,0.2059,0.2141,0.2232,0.2328,0.2395,0.249,0.2479,0.2532,0.2577,0.2611,0.2655,0.2594,0.2653,0.2655,0.2469,0.2545,0.2634,0.2713,0.2716,0.2718,0.272,0,0.1795,0.1803,0.184,0.1907,0.1929,0.1982,0.2111,0.2193,0.2337,0.2416,0.2517,0.2575,0.2673,0.2651,0.2752,0.2715,0.2735,0.2743,0.2746,0.256,0.2495,0.2618,0.2745,0.2743,0.2741,0.2739,0.2738,0,0.1745,0.1797,0.1827,0.1845,0.1932,0.1993,0.2078,0.2227,0.2324,0.2492,0.2574,0.2683,0.2773,0.2812,0.285,0.2823,0.2935,0.2899,0.2742,0.2728,0.2843,0.2829,0.2969,0.2969,0.2969,0.2969,0.2968,0,0.1695,0.1719,0.1809,0.1812,0.1885,0.1988,0.2114,0.221,0.2391,0.2508,0.2632,0.271,0.2824,0.2892,0.2894,0.2858,0.2983,0.2762,0.2742,0.2866,0.2855,0.2852,0.2837,0.2972,0.2971,0.297,0.297,0,0.1611,0.1665,0.1702,0.1811,0.1851,0.1922,0.2114,0.2204,0.2395,0.2548,0.2612,0.2781,0.2867,0.2927,0.3007,0.2909,0.2894,0.2848,0.2982,0.2967,0.264,0.2628,0.2679,0.2673,0.2668,0.2664,0.2661,0,0.1554,0.1567,0.1685,0.1711,0.176,0.1884,0.1967,0.218,0.2292,0.2554,0.2607,0.2767,0.2847,0.2802,0.2879,0.2865,0.2823,0.279,0.2702,0.2637,0.2614,0.261,0.2605,0.2653,0.2652,0.2651,0.2649,0,0.1454,0.1529,0.1564,0.1624,0.17,0.1785,0.1934,0.1999,0.226,0.2435,0.2539,0.2578,0.2666,0.2697,0.271,0.2689,0.2794,0.2738,0.2747,0.2664,0.2606,0.2587,0.2588,0.2632,0.2635,0.2636,0.2637,0,0.141,0.1417,0.1487,0.1533,0.1614,0.1667,0.1757,0.1885,0.2025,0.2322,0.2345,0.2497,0.2655,0.2607,0.2615,0.2586,0.2534,0.2425,0.2449,0.2469,0.2358,0.2251,0.2161,0,0,0,0,0,0.1357,0.1351,0.1378,0.1427,0.1504,0.1559,0.1723,0.1835,0.2076,0.2092,0.2226,0.2293,0.2324,0.2395,0.2319,0.2503,0.2532,0.24,0.2417,0.2539,0.2558,0.2443,0,0,0,0,0,0,0.1315,0.1338,0.1343,0.1341,0.1352,0.1438,0.1537,0.169,0.1727,0.1956,0.1985,0.2142,0.2203,0.2345,0.2274,0.2293,0.225,0.25,0.2493,0.2528,0.2545,0.2561,0.2449,0,0,0,0,0]},{"header":{"parameterUnit":"m.s-1","parameterCategory":2,"la1":30.2991,"la2":30.254,"lo1":-89.0895,"lo2":-89.0444,"dy":0.0017,"dx":0.0017,"nx":28,"ny":28,"refTime":"2025-07-22T21:00:00:Z","depth":"4","parameterNumber":3,"parameterNumberName":"V-component_of_CURRENTS"},"data":[0,0,0,0,0,0,0,0,0,0,0,0,0,0,0,0,0,0,0,0,0,0,0,0,0,0,0,0,0,0,0,0,0,0,0,0,0,0,0,0,0,0,0,0,0,0,0,0,0,0,0,0,0,0,0,0,0,0,0.0168,0.0168,0,0.0166,0.0165,0.0165,0.0148,0.0148,0.0147,0.0147,0.013,0.0129,0.0129,0,0,0,0,0,0,0,0,0,0,0,0,0,0.0141,0.0142,0.0168,0.0168,0.0168,0.0166,0.0165,0.0165,0.0148,0.0148,0.0147,0.0147,0.013,0.0129,0.0129,0,0,0,0,0,0,0,0,0,0,0,0,0,0.0146,0.0142,0.0168,0.016,0.0159,0.0166,0.0165,0.0165,0.0148,0.0148,0.0147,0.0147,0.013,0.0129,0.0129,0.0138,0,0,0.0128,0.0128,0,0,0,0,0,0,0,0,0.0146,0.0147,0.0161,0.0161,0.016,0.0157,0.015,0.0156,0.0148,0.0151,0.0147,0.0146,0.0139,0.0138,0.0137,0.0137,0.0136,0.0128,0.0128,0.0128,0.0128,0,0,0,0,0,0,0,0.0146,0.0147,0.0166,0.0161,0.0161,0.0151,0.0151,0.0151,0.0147,0.0151,0.015,0.0151,0.0138,0.0137,0.0136,0.0136,0.0128,0.0128,0.0128,0.0128,0.0119,0.0119,0,0,0,0,0,0,0.015,0.0147,0.0166,0.0166,0.0153,0.0152,0.0152,0.0158,0.0147,0.0145,0.0152,0.0151,0.0138,0.0137,0.0136,0.0145,0.0128,0.0128,0.0128,0.0119,0.0119,0.0119,0,0,0,0,0,0,0.0149,0.0152,0.0166,0.0157,0.0158,0.0153,0.016,0.0158,0.0162,0.0148,0.0146,0.0157,0.0137,0.0136,0.0136,0.0144,0.0128,0.0128,0.0119,0.0119,0.0119,0.0163,0,0,0,0,0,0,0.0149,0.0152,0.0159,0.0158,0.0159,0.0175,0.016,0.0158,0.0164,0.0162,0.0152,0.015,0.0137,0.0137,0.0136,0.0143,0.0127,0.0119,0.0119,0.0119,0.0162,0.0165,0.0167,0,0,0,0,0,0.0148,0.0163,0.0159,0.0162,0.0168,0.0175,0.0175,0.0169,0.0164,0.0169,0.016,0.015,0.0134,0.0137,0.0136,0.0143,0.012,0.0119,0.0119,0.0161,0.0164,0.0167,0,0,0,0,0,0,0.0154,0.0162,0.0158,0.0175,0.0176,0.0173,0.018,0.0175,0.0173,0.0172,0.0156,0.0153,0.0153,0.0142,0.0145,0.0137,0.0123,0.0122,0.0155,0.0158,0.016,0.0171,0.0127,0,0,0,0,0,0.0159,0.0172,0.0174,0.0186,0.019,0.0186,0.0189,0.0185,0.0183,0.0181,0.0174,0.0162,0.0151,0.015,0.0139,0.0144,0.0115,0.0144,0.0147,0.0149,0.0156,0.0111,0.011,0.0118,0.0118,0.0118,0,0,0.0164,0.0171,0.0177,0.0188,0.019,0.0208,0.0187,0.0196,0.0208,0.018,0.0194,0.0174,0.0154,0.0153,0.0152,0.0146,0.013,0.0149,0.0152,0.0157,0.0111,0.011,0.0109,0.0118,0.0118,0.0118,0,0,0.0186,0.0188,0.0209,0.0215,0.0222,0.0224,0.023,0.0232,0.0228,0.0237,0.0213,0.0198,0.0194,0.0175,0.0165,0.0176,0.0143,0.0171,0.0199,0.0155,0.0155,0.0153,0.0112,0.0107,0.0175,0.0175,0.0175,0,0.0191,0.022,0.0214,0.0236,0.0249,0.0237,0.0264,0.026,0.026,0.026,0.0247,0.0221,0.0203,0.0193,0.0194,0.0183,0.0153,0.0192,0.0159,0.0158,0.0156,0.0113,0.0107,0.0177,0.0177,0.0177,0.0177,0,0.023,0.0253,0.0267,0.0294,0.0304,0.0324,0.0323,0.0328,0.0323,0.0316,0.0303,0.0267,0.0253,0.0237,0.0223,0.0202,0.0182,0.0167,0.0155,0.0158,0.0113,0.0105,0.018,0.018,0.0179,0.0178,0,0,0.0248,0.0288,0.0293,0.0319,0.0338,0.0355,0.0371,0.0384,0.0399,0.0373,0.0378,0.0341,0.0316,0.0302,0.0268,0.0227,0.0184,0.0198,0.0195,0.0163,0.0088,0.0092,0.0084,0.0163,0.0162,0.0161,0.0061,0,0.0284,0.0341,0.0349,0.0404,0.0438,0.0431,0.0456,0.0459,0.0448,0.0448,0.0392,0.0386,0.0342,0.0334,0.0286,0.0212,0.0168,0.0213,0.0085,0.0081,0.0089,0.0077,0.0158,0.0055,0.0053,0.0052,0.0051,0,0.0322,0.0361,0.0426,0.0474,0.0488,0.0518,0.055,0.0571,0.0555,0.0542,0.0508,0.0464,0.0407,0.0366,0.0235,0.0267,0.0187,0.0119,0.0113,0.0099,0.0072,0.005,0.0037,0.0038,0.0039,0.004,0.0041,0,0.035,0.0411,0.047,0.0488,0.0543,0.0567,0.0597,0.0604,0.0633,0.0605,0.0605,0.0522,0.0491,0.0371,0.0234,0.0235,0.008,0.0063,-0.0015,-0.0016,-0.0008,-0.0006,-0.0033,-0.0033,-0.0032,-0.0032,-0.0032,0,0.0389,0.0434,0.0493,0.0527,0.0606,0.0622,0.069,0.0697,0.0714,0.075,0.0666,0.065,0.0492,0.0383,0.0248,0.0096,0.0088,-0.0011,-0.0041,0.0012,0.0017,-0.0014,-0.0011,-0.0036,-0.0035,-0.0034,-0.0034,0,0.0413,0.0451,0.0523,0.0592,0.0626,0.0684,0.077,0.0811,0.0816,0.0851,0.0847,0.0751,0.0613,0.0438,0.0242,0.0131,-0.0027,-0.008,-0.001,-0.0034,-0.0099,-0.0092,-0.0174,-0.0174,-0.0175,-0.0175,-0.0176,0,0.0429,0.0473,0.0573,0.0628,0.0667,0.0757,0.0825,0.0868,0.091,0.0907,0.0921,0.0807,0.0718,0.0442,0.0254,-0.0005,-0.004,-0.0128,-0.0116,-0.0093,-0.0114,-0.0106,-0.0098,-0.0177,-0.0177,-0.0177,-0.0177,0,0.0461,0.0498,0.056,0.0674,0.0758,0.0858,0.0946,0.0984,0.103,0.1028,0.0981,0.0836,0.0681,0.0458,0.026,0.0071,-0.0077,-0.0135,-0.0135,-0.0125,-0.0098,-0.0116,-0.0108,-0.0179,-0.0179,-0.0179,-0.0179,0,0.0481,0.0525,0.0608,0.0714,0.082,0.0923,0.097,0.102,0.107,0.106,0.104,0.0864,0.0768,0.0497,0.0308,0.0129,0.0083,0.0016,0.0007,0.0007,0.0088,0.0151,0.012,0,0,0,0,0,0.0499,0.0553,0.0639,0.0754,0.0859,0.0932,0.1037,0.1073,0.1109,0.1091,0.1073,0.0926,0.0655,0.0533,0.0357,0.0286,0.0043,0.0071,-0.0041,-0.019,-0.0188,-0.0124,0,0,0,0,0,0,0.0509,0.0589,0.0635,0.0773,0.0855,0.0982,0.1054,0.1084,0.1074,0.1072,0.0934,0.0872,0.0611,0.0758,0.035,0.0295,0.0197,-0.0051,-0.0055,-0.0192,-0.019,-0.0188,-0.0121,0,0,0,0,0]}]]